Regional Weather Roundup
Issued by NWS

Home | Current Version | Previous Version | Graphics & Text | Print | Product List | Glossary On
Versions: 1 2 3 4 5 6 7 8 9 10 11 12 13 14 15 16 17 18 19 20 21 22 23 24 25 26 27 28 29 30 31 32 33 34 35 36 37 38 39 40 41 42 43 44 45 46 47 48 49 50
496
ASUS45 KCYS 031810
RWRWY

WYOMING REGIONAL WEATHER ROUNDUP
NATIONAL WEATHER SERVICE CHEYENNE WY
1100 AM MST SAT DEC 03 2016

NOTE:  "FAIR" INDICATES FEW OR NO CLOUDS BELOW 12,000 FEET
WITH NO SIGNIFICANT WEATHER AND/OR OBSTRUCTIONS TO VISIBILITY.

WYZ001-031900-
YELLOWSTONE NATIONAL PARK

CITY           SKY/WX    TMP DP  RH WIND       PRES   REMARKS
LK YELLOWSTONE   N/A     15  11  83 VRB5      30.08R WCI   8
6HR MIN TEMP:  12; 6HR MAX TEMP:  16;

W YELLOWSTONE  NOT AVBL

$$
WYZ002>013-054>058-071-098>099-031900-
NORTHERN WYOMING

CITY           SKY/WX    TMP DP  RH WIND       PRES   REMARKS
JACKSON        CLOUDY    25  19  80 SW9       30.14S WCI  15
CODY           FAIR      35  10  35 W21G33    29.96R WCI  24
GREYBULL       CLOUDY    32  18  56 SE5       30.00F WCI  27
6HR MIN TEMP:  24; 6HR MAX TEMP:  32;

WORLAND        PTSUNNY   31  16  54 CALM      30.00S
6HR MIN TEMP:  18; 6HR MAX TEMP:  31;

SHERIDAN       FLURRIES  36  29  75 W6        29.93R WCI  31
6HR MIN TEMP:  20; 6HR MAX TEMP:  39; 6HR PCP: TRACE;

BUFFALO        PTSUNNY   38  15  39 VRB5      29.91S WCI  34
6HR MIN TEMP:  25; 6HR MAX TEMP:  38;

GILLETTE       PTSUNNY   33  21  61 SW12      29.90F WCI  24
6HR MIN TEMP:  21; 6HR MAX TEMP:  33;

HULETT         CLOUDY    30  21  69 SW13G18   29.90F WCI  20
NEWCASTLE      FAIR      27  18  69 W6        29.94F WCI  20

$$
WYZ014>020-022>026-101>103-031900-
CENTRAL WYOMING

CITY           SKY/WX    TMP DP  RH WIND       PRES   REMARKS
BIG PINEY      FAIR      23  12  62 CALM      30.10F
6HR MIN TEMP:   3; 6HR MAX TEMP:  23;

PINEDALE       FAIR      23  12  63 NW16G22   30.10S WCI  10
DUBOIS         MOCLDY    27   9  46 NW16G24   30.01S WCI  14
LANDER         FAIR      27   8  44 W5        29.99S WCI  22
6HR MIN TEMP:  11; 6HR MAX TEMP:  27;

RIVERTON       FAIR      36  12  37 W14       29.99R WCI  27
6HR MIN TEMP:  19; 6HR MAX TEMP:  36;

CASPER         CLOUDY    31  12  45 SW26G35   29.97R WCI  17
6HR MIN TEMP:  20; 6HR MAX TEMP:  31; 6HR PCP: TRACE;

DOUGLAS        CLOUDY    38  14  37 W20G28    29.95S WCI  28
6HR MIN TEMP:  22; 6HR MAX TEMP:  38;


$$
WYZ021-027>030-104>119-031900-
SOUTHERN WYOMING

CITY           SKY/WX    TMP DP  RH WIND       PRES   REMARKS
EVANSTON       CLOUDY    22  11  62 SW24      30.16F WCI   5
6HR MIN TEMP:  12; 6HR MAX TEMP:  22;

FORT BRIDGER   CLOUDY    28  13  54 W14G22    30.17S WCI  17
ROCK SPRINGS   FAIR      23  10  57 W33G43    30.08S WCI   5
6HR MIN TEMP:  14; 6HR MAX TEMP:  23;

DIXON          CLOUDY    23  13  66 CALM      30.17F
RAWLINS        CLOUDY    21   9  59 SW18G28   30.05R WCI   6
6HR MIN TEMP:  16; 6HR MAX TEMP:  23;

SARATOGA       CLOUDY    23  10  58 SW18G26   30.08R WCI   9
LARAMIE        FAIR      28   7  41 W24G33    29.96S WCI  14
6HR MIN TEMP:  12; 6HR MAX TEMP:  28;

CHEYENNE       CLOUDY    32   7  35 W22G31    29.96F WCI  19
6HR MIN TEMP:  16; 6HR MAX TEMP:  32;

TORRINGTON     FAIR      39  10  30 W24G32    29.96F WCI  28
6HR MIN TEMP:  15; 6HR MAX TEMP:  39;

PINE BLUFFS    FAIR      36  21  55 SW8       29.98F WCI  29

$$




USA.gov is the U.S. government's official web portal to all federal, state and local government web resources and services.